Time,TemperatureF,DewpointF,PressureIn,WindDirection,WindDirectionDegrees,WindSpeedMPH,WindSpeedGustMPH,Humidity,HourlyPrecipIn,Conditions,Clouds,dailyrainin,SoftwareType,DateUTC
2013-01-24 00:02:00,17.0,9.0,30.47,SE,133,2.0,6.0,71,0.00,,,0.00,,2013-01-24 06:02:00,
2013-01-24 00:12:00,17.0,9.0,30.47,SE,133,2.0,6.0,71,0.00,,,0.00,,2013-01-24 06:12:00,
2013-01-24 00:22:00,16.0,8.0,30.47,SE,131,0.0,5.0,71,0.00,,,0.00,,2013-01-24 06:22:00,
2013-01-24 00:32:00,16.0,8.0,30.48,East,91,0.0,4.0,71,0.00,,,0.00,,2013-01-24 06:32:00,
2013-01-24 00:42:00,16.0,8.0,30.48,East,91,0.0,4.0,71,0.00,,,0.00,,2013-01-24 06:42:00,
2013-01-24 00:52:00,15.0,8.0,30.47,SE,134,1.0,4.0,72,0.00,,,0.00,,2013-01-24 06:52:00,
2013-01-24 01:02:00,15.0,8.0,30.46,SE,130,2.0,7.0,73,0.00,,,0.00,,2013-01-24 07:02:00,
2013-01-24 01:12:00,15.0,8.0,30.46,SE,130,2.0,7.0,73,0.00,,,0.00,,2013-01-24 07:12:00,
2013-01-24 01:23:00,14.0,7.0,30.47,SE,136,1.0,5.0,74,0.00,,,0.00,,2013-01-24 07:23:00,
2013-01-24 01:33:00,14.0,8.0,30.47,SE,136,1.0,4.0,75,0.00,,,0.00,,2013-01-24 07:33:00,
2013-01-24 01:42:00,14.0,8.0,30.47,SE,136,1.0,4.0,75,0.00,,,0.00,,2013-01-24 07:42:00,
2013-01-24 01:53:00,13.0,7.0,30.46,SE,136,0.0,3.0,76,0.00,,,0.00,,2013-01-24 07:53:00,
2013-01-24 02:02:00,13.0,7.0,30.47,SE,136,0.0,3.0,76,0.00,,,0.00,,2013-01-24 08:02:00,
2013-01-24 02:12:00,13.0,7.0,30.47,SE,136,0.0,3.0,76,0.00,,,0.00,,2013-01-24 08:12:00,
2013-01-24 02:22:00,12.0,6.0,30.47,SE,136,1.0,3.0,78,0.00,,,0.00,,2013-01-24 08:22:00,
2013-01-24 02:33:00,12.0,7.0,30.46,SE,132,2.0,6.0,79,0.00,,,0.00,,2013-01-24 08:33:00,
2013-01-24 02:42:00,12.0,7.0,30.46,SE,132,2.0,6.0,79,0.00,,,0.00,,2013-01-24 08:42:00,
2013-01-24 02:53:00,11.0,6.0,30.46,ESE,115,0.0,5.0,79,0.00,,,0.00,,2013-01-24 08:53:00,
2013-01-24 03:02:00,11.0,6.0,30.46,ESE,115,0.0,5.0,79,0.00,,,0.00,,2013-01-24 09:02:00,
2013-01-24 03:12:00,11.0,6.0,30.46,ESE,115,0.0,5.0,79,0.00,,,0.00,,2013-01-24 09:12:00,
2013-01-24 03:23:00,10.0,5.0,30.44,SE,128,1.0,3.0,80,0.00,,,0.00,,2013-01-24 09:23:00,
2013-01-24 03:33:00,10.0,5.0,30.44,SE,128,1.0,3.0,80,0.00,,,0.00,,2013-01-24 09:33:00,
2013-01-24 03:43:00,10.0,5.0,30.44,SE,128,1.0,3.0,80,0.00,,,0.00,,2013-01-24 09:43:00,
2013-01-24 03:53:00,9.0,4.0,30.45,ESE,119,1.0,4.0,81,0.00,,,0.00,,2013-01-24 09:53:00,
2013-01-24 04:02:00,9.0,4.0,30.45,ESE,119,1.0,4.0,81,0.00,,,0.00,,2013-01-24 10:02:00,
2013-01-24 04:12:00,9.0,4.0,30.45,ESE,119,1.0,4.0,81,0.00,,,0.00,,2013-01-24 10:12:00,
2013-01-24 04:23:00,9.0,5.0,30.43,SE,136,1.0,5.0,82,0.00,,,0.00,,2013-01-24 10:23:00,
2013-01-24 04:33:00,9.0,4.0,30.44,SE,144,2.0,6.0,81,0.00,,,0.00,,2013-01-24 10:33:00,
2013-01-24 04:43:00,9.0,4.0,30.44,SE,144,2.0,6.0,81,0.00,,,0.00,,2013-01-24 10:43:00,
2013-01-24 04:53:00,9.0,5.0,30.45,SE,144,1.0,4.0,82,0.00,,,0.00,,2013-01-24 10:53:00,
2013-01-24 05:02:00,9.0,5.0,30.43,SE,143,2.0,6.0,82,0.00,,,0.00,,2013-01-24 11:02:00,
2013-01-24 05:12:00,9.0,5.0,30.43,SE,143,2.0,6.0,82,0.00,,,0.00,,2013-01-24 11:12:00,
2013-01-24 05:22:00,9.0,5.0,30.43,SE,142,0.0,6.0,82,0.00,,,0.00,,2013-01-24 11:22:00,
2013-01-24 05:33:00,9.0,5.0,30.43,SE,142,0.0,6.0,82,0.00,,,0.00,,2013-01-24 11:33:00,
2013-01-24 05:43:00,9.0,5.0,30.43,SE,142,0.0,6.0,82,0.00,,,0.00,,2013-01-24 11:43:00,
2013-01-24 05:52:00,9.0,5.0,30.43,SE,142,0.0,6.0,82,0.00,,,0.00,,2013-01-24 11:52:00,
2013-01-24 06:03:00,8.0,4.0,30.42,SE,130,0.0,5.0,82,0.00,,,0.00,,2013-01-24 12:03:00,
2013-01-24 06:12:00,8.0,4.0,30.42,SE,130,0.0,5.0,82,0.00,,,0.00,,2013-01-24 12:12:00,
2013-01-24 06:23:00,7.0,3.0,30.43,SE,129,2.0,5.0,82,0.00,,,0.00,,2013-01-24 12:23:00,
2013-01-24 06:33:00,7.0,3.0,30.42,SE,144,2.0,5.0,82,0.00,,,0.00,,2013-01-24 12:33:00,
2013-01-24 06:43:00,7.0,3.0,30.42,SE,144,2.0,5.0,82,0.00,,,0.00,,2013-01-24 12:43:00,
2013-01-24 06:53:00,7.0,3.0,30.40,SE,141,3.0,7.0,83,0.00,,,0.00,,2013-01-24 12:53:00,
2013-01-24 07:03:00,6.0,2.0,30.40,SE,136,3.0,5.0,83,0.00,,,0.00,,2013-01-24 13:03:00,
2013-01-24 07:13:00,6.0,2.0,30.40,SE,136,3.0,5.0,83,0.00,,,0.00,,2013-01-24 13:13:00,
2013-01-24 07:23:00,7.0,3.0,30.39,SE,138,4.0,8.0,84,0.00,,,0.00,,2013-01-24 13:23:00,
2013-01-24 07:33:00,7.0,3.0,30.41,SE,130,3.0,6.0,84,0.00,,,0.00,,2013-01-24 13:33:00,
2013-01-24 07:43:00,7.0,3.0,30.41,SE,130,3.0,6.0,84,0.00,,,0.00,,2013-01-24 13:43:00,
2013-01-24 07:53:00,8.0,4.0,30.40,SSE,152,2.0,5.0,85,0.00,,,0.00,,2013-01-24 13:53:00,
2013-01-24 08:03:00,8.0,4.0,30.39,SE,136,3.0,8.0,84,0.00,,,0.00,,2013-01-24 14:03:00,
2013-01-24 08:12:00,8.0,4.0,30.39,SE,136,3.0,8.0,84,0.00,,,0.00,,2013-01-24 14:12:00,
2013-01-24 08:23:00,8.0,4.0,30.40,SE,127,2.0,9.0,85,0.00,,,0.00,,2013-01-24 14:23:00,
2013-01-24 08:33:00,8.0,4.0,30.38,SSE,167,6.0,10.0,85,0.00,,,0.00,,2013-01-24 14:33:00,
2013-01-24 08:43:00,8.0,4.0,30.38,SSE,167,6.0,10.0,85,0.00,,,0.00,,2013-01-24 14:43:00,
2013-01-24 08:53:00,8.0,4.0,30.39,SE,144,5.0,10.0,85,0.00,,,0.00,,2013-01-24 14:53:00,
2013-01-24 09:03:00,9.0,5.0,30.39,ESE,105,4.0,11.0,85,0.00,,,0.00,,2013-01-24 15:03:00,
2013-01-24 09:12:00,9.0,5.0,30.39,ESE,105,4.0,11.0,85,0.00,,,0.00,,2013-01-24 15:12:00,
2013-01-24 09:23:00,10.0,6.0,30.38,SE,130,6.0,14.0,84,0.00,,,0.00,,2013-01-24 15:23:00,
2013-01-24 09:33:00,10.0,6.0,30.38,SE,130,6.0,14.0,84,0.00,,,0.00,,2013-01-24 15:33:00,
2013-01-24 09:43:00,10.0,6.0,30.38,SE,124,4.0,15.0,83,0.00,,,0.00,,2013-01-24 15:43:00,
2013-01-24 09:53:00,11.0,7.0,30.37,SE,135,6.0,13.0,82,0.00,,,0.00,,2013-01-24 15:53:00,
2013-01-24 10:03:00,12.0,7.0,30.37,SE,142,6.0,12.0,81,0.00,,,0.00,,2013-01-24 16:03:00,
2013-01-24 10:12:00,12.0,7.0,30.37,SE,142,6.0,12.0,81,0.00,,,0.00,,2013-01-24 16:12:00,
2013-01-24 10:23:00,13.0,8.0,30.37,SE,134,3.0,12.0,79,0.00,,,0.00,,2013-01-24 16:23:00,
2013-01-24 10:33:00,13.0,8.0,30.37,SE,128,5.0,12.0,79,0.00,,,0.00,,2013-01-24 16:33:00,
2013-01-24 10:42:00,13.0,8.0,30.37,SE,128,5.0,12.0,79,0.00,,,0.00,,2013-01-24 16:42:00,
2013-01-24 11:02:00,15.0,8.0,30.36,ESE,123,5.0,11.0,74,0.00,,,0.00,,2013-01-24 17:02:00,
2013-01-24 11:12:00,15.0,8.0,30.36,ESE,123,5.0,11.0,74,0.00,,,0.00,,2013-01-24 17:12:00,
2013-01-24 11:22:00,15.0,8.0,30.36,ESE,123,5.0,11.0,74,0.00,,,0.00,,2013-01-24 17:22:00,
2013-01-24 11:32:00,15.0,8.0,30.36,SE,140,3.0,14.0,73,0.00,,,0.00,,2013-01-24 17:32:00,
2013-01-24 11:42:00,15.0,8.0,30.36,SE,140,3.0,14.0,73,0.00,,,0.00,,2013-01-24 17:42:00,
2013-01-24 11:52:00,16.0,9.0,30.34,ESE,119,4.0,13.0,72,0.00,,,0.00,,2013-01-24 17:52:00,
2013-01-24 12:02:00,17.0,9.0,30.34,SW,215,3.0,11.0,70,0.00,,,0.00,,2013-01-24 18:02:00,
2013-01-24 12:12:00,17.0,9.0,30.32,SE,135,3.0,11.0,70,0.00,,,0.00,,2013-01-24 18:12:00,
2013-01-24 12:22:00,17.0,9.0,30.32,SE,135,3.0,11.0,70,0.00,,,0.00,,2013-01-24 18:22:00,
2013-01-24 12:33:00,18.0,10.0,30.31,ESE,118,4.0,11.0,69,0.00,,,0.00,,2013-01-24 18:33:00,
2013-01-24 12:42:00,18.0,10.0,30.31,ESE,118,4.0,11.0,69,0.00,,,0.00,,2013-01-24 18:42:00,
2013-01-24 12:52:00,18.0,10.0,30.31,ESE,118,4.0,11.0,69,0.00,,,0.00,,2013-01-24 18:52:00,
2013-01-24 13:02:00,18.0,9.0,30.28,East,95,4.0,12.0,68,0.00,,,0.00,,2013-01-24 19:02:00,
2013-01-24 13:12:00,18.0,9.0,30.28,East,95,4.0,12.0,68,0.00,,,0.00,,2013-01-24 19:12:00,
2013-01-24 13:22:00,19.0,10.0,30.27,WSW,241,1.0,8.0,68,0.00,,,0.00,,2013-01-24 19:22:00,
2013-01-24 13:33:00,19.0,10.0,30.24,SW,215,2.0,13.0,67,0.00,,,0.00,,2013-01-24 19:33:00,
2013-01-24 13:42:00,19.0,10.0,30.24,SW,215,2.0,13.0,67,0.00,,,0.00,,2013-01-24 19:42:00,
2013-01-24 13:52:00,19.0,10.0,30.24,SW,215,2.0,13.0,67,0.00,,,0.00,,2013-01-24 19:52:00,
2013-01-24 14:02:00,21.0,11.0,30.23,North,9,3.0,11.0,64,0.00,,,0.00,,2013-01-24 20:02:00,
2013-01-24 14:11:00,21.0,11.0,30.23,North,9,3.0,11.0,64,0.00,,,0.00,,2013-01-24 20:11:00,
2013-01-24 14:22:00,21.0,11.0,30.21,SE,136,4.0,11.0,64,0.00,,,0.00,,2013-01-24 20:22:00,
2013-01-24 14:32:00,21.0,11.0,30.21,South,178,3.0,13.0,66,0.00,,,0.00,,2013-01-24 20:32:00,
2013-01-24 14:42:00,21.0,11.0,30.21,South,178,3.0,13.0,66,0.00,,,0.00,,2013-01-24 20:42:00,
2013-01-24 14:52:00,21.0,12.0,30.20,SE,134,3.0,18.0,68,0.00,,,0.00,,2013-01-24 20:52:00,
2013-01-24 15:02:00,22.0,13.0,30.20,SSE,150,7.0,14.0,68,0.00,,,0.00,,2013-01-24 21:02:00,
2013-01-24 15:12:00,22.0,13.0,30.20,SSE,150,7.0,14.0,68,0.00,,,0.00,,2013-01-24 21:12:00,
2013-01-24 15:22:00,23.0,14.0,30.19,SSW,196,9.0,16.0,68,0.00,,,0.00,,2013-01-24 21:22:00,
2013-01-24 15:33:00,24.0,15.0,30.18,SSW,207,6.0,13.0,68,0.00,,,0.00,,2013-01-24 21:33:00,
2013-01-24 15:43:00,24.0,15.0,30.18,SSW,207,6.0,13.0,68,0.00,,,0.00,,2013-01-24 21:43:00,
2013-01-24 15:52:00,23.0,14.0,30.18,SSW,204,7.0,16.0,67,0.00,,,0.00,,2013-01-24 21:52:00,
2013-01-24 16:03:00,23.0,14.0,30.18,South,189,8.0,16.0,68,0.00,,,0.00,,2013-01-24 22:03:00,
2013-01-24 16:12:00,23.0,14.0,30.18,South,189,8.0,16.0,68,0.00,,,0.00,,2013-01-24 22:12:00,
2013-01-24 16:22:00,24.0,15.0,30.16,SW,228,5.0,11.0,68,0.00,,,0.00,,2013-01-24 22:22:00,
2013-01-24 16:32:00,24.0,15.0,30.16,SW,228,5.0,11.0,68,0.00,,,0.00,,2013-01-24 22:32:00,
2013-01-24 16:42:00,24.0,15.0,30.16,SW,228,5.0,11.0,68,0.00,,,0.00,,2013-01-24 22:42:00,
2013-01-24 16:52:00,25.0,16.0,30.15,WSW,238,6.0,13.0,68,0.00,,,0.00,,2013-01-24 22:52:00,
2013-01-24 17:02:00,25.0,16.0,30.14,South,189,3.0,12.0,69,0.00,,,0.00,,2013-01-24 23:02:00,
2013-01-24 17:12:00,25.0,16.0,30.14,South,189,3.0,12.0,69,0.00,,,0.00,,2013-01-24 23:12:00,
2013-01-24 17:22:00,26.0,17.0,30.14,South,184,3.0,10.0,68,0.00,,,0.00,,2013-01-24 23:22:00,
2013-01-24 17:32:00,26.0,17.0,30.14,SSW,199,3.0,8.0,67,0.00,,,0.00,,2013-01-24 23:32:00,
2013-01-24 17:42:00,26.0,17.0,30.14,SSW,199,3.0,8.0,67,0.00,,,0.00,,2013-01-24 23:42:00,
2013-01-24 17:52:00,26.0,17.0,30.15,SSW,211,5.0,10.0,68,0.00,,,0.00,,2013-01-24 23:52:00,
2013-01-24 18:02:00,26.0,18.0,30.15,ESE,121,4.0,8.0,70,0.00,,,0.00,,2013-01-25 00:02:00,
2013-01-24 18:12:00,26.0,18.0,30.15,ESE,121,4.0,8.0,70,0.00,,,0.00,,2013-01-25 00:12:00,
2013-01-24 18:22:00,25.0,17.0,30.15,SSW,200,5.0,8.0,71,0.00,,,0.00,,2013-01-25 00:22:00,
2013-01-24 18:32:00,25.0,17.0,30.15,SSW,212,3.0,6.0,72,0.00,,,0.00,,2013-01-25 00:32:00,
2013-01-24 18:42:00,25.0,17.0,30.15,SSW,212,3.0,6.0,72,0.00,,,0.00,,2013-01-25 00:42:00,
2013-01-24 18:52:00,25.0,17.0,30.15,SE,138,2.0,5.0,72,0.00,,,0.00,,2013-01-25 00:52:00,
2013-01-24 19:02:00,25.0,17.0,30.15,SE,126,1.0,5.0,72,0.00,,,0.00,,2013-01-25 01:02:00,
2013-01-24 19:12:00,25.0,17.0,30.15,SE,126,1.0,5.0,72,0.00,,,0.00,,2013-01-25 01:12:00,
2013-01-24 19:22:00,25.0,18.0,30.16,SE,126,0.0,2.0,73,0.00,,,0.00,,2013-01-25 01:22:00,
2013-01-24 19:32:00,25.0,18.0,30.16,SE,126,0.0,5.0,73,0.00,,,0.00,,2013-01-25 01:32:00,
2013-01-24 19:42:00,25.0,18.0,30.16,SE,126,0.0,5.0,73,0.00,,,0.00,,2013-01-25 01:42:00,
2013-01-24 19:52:00,25.0,18.0,30.17,SE,126,0.0,2.0,75,0.00,,,0.00,,2013-01-25 01:52:00,
2013-01-24 20:02:00,25.0,19.0,30.17,SSW,201,2.0,5.0,76,0.00,,,0.00,,2013-01-25 02:02:00,
2013-01-24 20:11:00,25.0,19.0,30.17,SSW,201,2.0,5.0,76,0.00,,,0.00,,2013-01-25 02:11:00,
2013-01-24 20:22:00,25.0,19.0,30.16,WSW,245,2.0,4.0,76,0.00,,,0.00,,2013-01-25 02:22:00,
2013-01-24 20:32:00,24.0,18.0,30.17,SW,232,1.0,5.0,77,0.00,,,0.00,,2013-01-25 02:32:00,
2013-01-24 20:42:00,24.0,18.0,30.17,SW,232,1.0,5.0,77,0.00,,,0.00,,2013-01-25 02:42:00,
2013-01-24 20:52:00,24.0,18.0,30.17,SW,231,0.0,0.0,77,0.00,,,0.00,,2013-01-25 02:52:00,
2013-01-24 21:02:00,24.0,18.0,30.17,SW,231,0.0,0.0,78,0.00,,,0.00,,2013-01-25 03:02:00,
2013-01-24 21:12:00,23.0,17.0,30.18,SW,231,0.0,0.0,79,0.00,,,0.00,,2013-01-25 03:12:00,
2013-01-24 21:22:00,23.0,17.0,30.18,SW,231,0.0,0.0,79,0.00,,,0.00,,2013-01-25 03:22:00,
2013-01-24 21:33:00,23.0,17.0,30.18,SW,231,0.0,0.0,79,0.00,,,0.00,,2013-01-25 03:33:00,
2013-01-24 21:42:00,23.0,17.0,30.18,SW,231,0.0,0.0,79,0.00,,,0.00,,2013-01-25 03:42:00,
2013-01-24 21:52:00,24.0,18.0,30.19,SW,231,0.0,1.0,79,0.00,,,0.00,,2013-01-25 03:52:00,
2013-01-24 22:02:00,24.0,18.0,30.19,West,259,0.0,3.0,79,0.00,,,0.00,,2013-01-25 04:02:00,
2013-01-24 22:12:00,24.0,18.0,30.19,West,259,0.0,3.0,79,0.00,,,0.00,,2013-01-25 04:12:00,
2013-01-24 22:22:00,24.0,18.0,30.19,West,259,0.0,3.0,79,0.00,,,0.00,,2013-01-25 04:22:00,
2013-01-24 22:32:00,24.0,18.0,30.20,NW,306,0.0,3.0,79,0.00,,,0.00,,2013-01-25 04:32:00,
2013-01-24 22:42:00,24.0,18.0,30.20,NW,306,0.0,3.0,79,0.00,,,0.00,,2013-01-25 04:42:00,
2013-01-24 22:52:00,24.0,18.0,30.19,NW,306,0.0,0.0,79,0.00,,,0.00,,2013-01-25 04:52:00,
2013-01-24 23:03:00,23.0,18.0,30.22,NW,306,0.0,2.0,80,0.00,,,0.00,,2013-01-25 05:03:00,
2013-01-24 23:12:00,23.0,18.0,30.22,NW,306,0.0,2.0,80,0.00,,,0.00,,2013-01-25 05:12:00,
2013-01-24 23:22:00,23.0,18.0,30.22,NW,306,0.0,1.0,80,0.00,,,0.00,,2013-01-25 05:22:00,
2013-01-24 23:32:00,23.0,18.0,30.21,NW,306,0.0,2.0,80,0.00,,,0.00,,2013-01-25 05:32:00,
2013-01-24 23:43:00,23.0,18.0,30.21,NW,306,0.0,2.0,80,0.00,,,0.00,,2013-01-25 05:43:00,
2013-01-24 23:52:00,23.0,18.0,30.22,NW,306,3.0,5.0,80,0.00,,,0.00,,2013-01-25 05:52:00,